Weather History for PAPB - January, 2013

Change the Weather History Date:

Friday, January 25, 2013

  Actual Average Record
Temperature  
Mean Temperature 24 °F -  
Max Temperature 26 °F 28 °F 39 °F (2004)
Min Temperature 23 °F 22 °F 3 °F (2012)
Degree Days  
Heating Degree Days 40    
Moisture  
Dew Point 22 °F    
Average Humidity 89    
Maximum Humidity 93    
Minimum Humidity 86    
Precipitation  
Precipitation 0.00 in - - ()
Sea Level Pressure  
Sea Level Pressure 29.86 in    
Wind  
Wind Speed 12 mph (ENE)    
Max Wind Speed 23 mph    
Max Gust Speed 26 mph    
Visibility 6 miles    
Events Rain , Snow    
Averages and records for this station are not official NWS values.
T = Trace of Precipitation, MM = Missing Value Source: NWS Daily Summary

Daily Weather History Graph

Daily Weather History Graph

Search for Another Location

Airport or City:

Trip Planner

Search our weather history database for the weather conditions in past years. The results will help you decide how hot, cold, wet, or windy it might be!

Date:

Astronomy

Jan. 25, 2013 Rise Set
Actual Time 10:27 AM AKST 6:35 PM AKST
Civil Twilight 9:44 AM AKST 7:18 PM AKST
Nautical Twilight 8:57 AM AKST 8:05 PM AKST
Astronomical Twilight 8:13 AM AKST 8:49 PM AKST
Moon 5:47 PM AKST (1/25) 9:16 AM AKST (1/25)
Length of Visible Light 9h 34m
Length of Day
8h 07m
Waxing Gibbous, 98% of the Moon is Illuminated
Jan 25
Waxing Gibbous
Jan 26
Full
Feb 3
Last Quarter
Feb 9
New
Feb 17
First Quarter

Hourly Weather History & Observations

Time (AKST) Temp. Windchill Dew Point Humidity Pressure Visibility Wind Dir Wind Speed Gust Speed Precip Events Conditions
12:53 AM 24.1 °F - 21.9 °F 91% 29.80 in 10.0 mi Calm Calm - N/A   Overcast
1:53 AM 24.1 °F - 21.9 °F 91% 29.81 in 10.0 mi Calm Calm - N/A   Overcast
2:53 AM 24.1 °F - 21.0 °F 88% 29.81 in 10.0 mi Calm Calm - N/A   Overcast
3:11 AM 24.8 °F - 21.2 °F 86% 29.84 in 10.0 mi Calm Calm - N/A   Overcast
3:26 AM 24.8 °F 16.9 °F 21.2 °F 86% 29.84 in 9.0 mi NE 6.9 mph - N/A   Overcast
3:53 AM 24.1 °F 14.4 °F 21.0 °F 88% 29.81 in 7.0 mi NE 9.2 mph - N/A   Overcast
4:53 AM 23.0 °F 13.1 °F 21.0 °F 92% 29.81 in 10.0 mi NNE 9.2 mph - N/A   Overcast
5:53 AM 23.0 °F 12.4 °F 21.0 °F 92% 29.81 in 8.0 mi NNE 10.4 mph - N/A   Overcast
6:38 AM 24.8 °F 14.6 °F 21.2 °F 86% 29.85 in 10.0 mi NNE 10.4 mph - N/A   Overcast
6:53 AM 24.1 °F 12.5 °F 21.9 °F 91% 29.81 in 10.0 mi NE 12.7 mph - N/A   Overcast
7:53 AM 24.1 °F 11.5 °F 21.9 °F 91% 29.81 in 9.0 mi NE 15.0 mph - N/A   Overcast
8:00 AM 24.8 °F 12.4 °F 21.2 °F 86% 29.85 in 9.0 mi NE 15.0 mph - N/A   Overcast
8:16 AM 24.8 °F 13.4 °F 21.2 °F 86% 29.84 in 10.0 mi NE 12.7 mph - N/A   Overcast
8:26 AM 24.8 °F 13.4 °F 21.2 °F 86% 29.84 in 10.0 mi NE 12.7 mph - N/A   Overcast
8:53 AM 24.1 °F 12.5 °F 21.9 °F 91% 29.82 in 10.0 mi ENE 12.7 mph - N/A   Overcast
9:53 AM 24.1 °F 11.5 °F 21.0 °F 88% 29.82 in 10.0 mi ENE 15.0 mph - N/A   Overcast
10:53 AM 24.1 °F 12.5 °F 21.9 °F 91% 29.83 in 10.0 mi ENE 12.7 mph - N/A   Overcast
11:45 AM 24.8 °F 13.4 °F 21.2 °F 86% 29.87 in 10.0 mi ENE 12.7 mph - N/A   Overcast
11:53 AM 25.0 °F 13.1 °F 21.9 °F 88% 29.83 in 5.0 mi ENE 13.8 mph - 0.00 in Snow Light Snow
12:09 PM 24.8 °F 11.9 °F 23.0 °F 93% 29.87 in 2.5 mi ENE 16.1 mph - 0.00 in Snow Light Snow
12:15 PM 24.8 °F 11.9 °F 23.0 °F 93% 29.87 in 1.8 mi ENE 16.1 mph - 0.00 in Snow Light Snow
12:40 PM 24.8 °F 11.5 °F 23.0 °F 93% 29.87 in 1.0 mi ENE 17.3 mph - 0.00 in Snow Light Snow
12:53 PM 25.0 °F 12.2 °F 23.0 °F 92% 29.84 in 1.0 mi ENE 16.1 mph - 0.00 in Snow Light Snow
1:01 PM 24.8 °F 10.7 °F 23.0 °F 93% 29.87 in 1.5 mi ENE 19.6 mph - 0.00 in Snow Light Snow
1:53 PM 25.0 °F 10.9 °F 21.9 °F 88% 29.83 in 1.5 mi ENE 19.6 mph - 0.00 in Snow Light Snow
2:07 PM 24.8 °F 10.0 °F 21.2 °F 86% 29.87 in 2.5 mi ENE 21.9 mph - 0.00 in Snow Light Snow
2:14 PM 24.8 °F 10.7 °F 21.2 °F 86% 29.87 in 4.0 mi ENE 19.6 mph - 0.00 in Snow Light Snow
2:34 PM 24.8 °F 10.7 °F 21.2 °F 86% 29.87 in 10.0 mi ENE 19.6 mph - 0.00 in   Overcast
2:53 PM 24.1 °F 10.1 °F 21.9 °F 91% 29.83 in 10.0 mi ENE 18.4 mph - 0.00 in   Overcast
3:53 PM 24.1 °F 9.8 °F 21.0 °F 88% 29.83 in 10.0 mi ENE 19.6 mph - N/A   Overcast
4:04 PM 24.8 °F 10.7 °F 21.2 °F 86% 29.87 in 10.0 mi ENE 19.6 mph - N/A   Overcast
4:53 PM 24.1 °F 10.1 °F 21.9 °F 91% 29.84 in 6.0 mi ENE 18.4 mph - N/A   Overcast
5:03 PM 24.8 °F 11.1 °F 21.2 °F 86% 29.87 in 3.0 mi ENE 18.4 mph - 0.00 in Rain Light Freezing Rain
5:53 PM 25.0 °F 10.2 °F 23.0 °F 92% 29.84 in 3.0 mi ENE 21.9 mph - 0.00 in Rain Light Freezing Rain
6:17 PM 24.8 °F 9.6 °F 21.2 °F 86% 29.87 in 1.8 mi ENE 23.0 mph - 0.00 in Snow Light Snow
6:40 PM 24.8 °F 9.6 °F 21.2 °F 86% 29.88 in 0.8 mi ENE 23.0 mph - 0.00 in Snow Light Snow
6:53 PM 24.1 °F 9.4 °F 21.9 °F 91% 29.85 in 1.0 mi ENE 20.7 mph - 0.00 in Snow Light Snow
7:00 PM 24.8 °F 10.3 °F 21.2 °F 86% 29.89 in 1.5 mi ENE 20.7 mph - 0.00 in Snow Light Snow
7:15 PM 24.8 °F 10.0 °F 21.2 °F 86% 29.89 in 2.5 mi ENE 21.9 mph - 0.00 in Snow Light Snow
7:30 PM 24.8 °F 10.0 °F 21.2 °F 86% 29.89 in 1.2 mi ENE 21.9 mph - 0.00 in Snow Light Snow
7:53 PM 24.1 °F 9.8 °F 21.9 °F 91% 29.87 in 1.8 mi ENE 19.6 mph - 0.00 in Snow Light Snow
7:57 PM 24.8 °F 10.7 °F 21.2 °F 86% 29.90 in 1.0 mi ENE 19.6 mph - 0.00 in Snow Light Snow
8:16 PM 24.8 °F 10.3 °F 21.2 °F 86% 29.90 in 1.5 mi ENE 20.7 mph - 0.00 in Snow Light Snow
8:21 PM 24.8 °F 10.0 °F 21.2 °F 86% 29.91 in 2.0 mi ENE 21.9 mph - 0.00 in Snow Light Snow
8:37 PM 24.8 °F 11.1 °F 21.2 °F 86% 29.91 in 4.0 mi ENE 18.4 mph - 0.00 in Snow Light Snow
8:53 PM 24.1 °F 10.1 °F 21.9 °F 91% 29.88 in 8.0 mi ENE 18.4 mph - 0.00 in   Overcast
9:20 PM 24.8 °F 10.3 °F 21.2 °F 86% 29.92 in 10.0 mi ENE 20.7 mph - N/A   Overcast
9:53 PM 24.1 °F 9.8 °F 21.9 °F 91% 29.89 in 10.0 mi ENE 19.6 mph - N/A   Overcast
10:53 PM 25.0 °F 11.3 °F 23.0 °F 92% 29.90 in 10.0 mi East 18.4 mph 26.5 mph N/A   Overcast
11:13 PM 26.6 °F 14.3 °F 23.0 °F 86% 29.93 in 10.0 mi East 16.1 mph - N/A   Overcast
11:53 PM 26.1 °F 13.6 °F 23.0 °F 88% 29.91 in 10.0 mi East 16.1 mph - N/A   Overcast